Volver al catálogo

ZORKIY-2M

ActivoMilitarSSO
NORAD 57177·PAYLOAD·🇷🇺 Russia
Este nombre de satélite aún no ha sido confirmado por fuentes oficiales.

Lanzado Jun 27, 2023 desde Vostochny Cosmodrome

Loading…

Próximos Pases (próximas 24 horas)

TLE

ActualizadoSource: Space-Track

Época: Sep 14, 2026, 22:08 UTC

1 57177U 23091M   26257.92236430  .00006081  00000-0  26973-3 0  9998
2 57177  97.4995 316.6215 0013613 156.8451 203.3401 15.21881227177645

Sigue ZORKIY-2M en tiempo real con AllMySat

Download on the App Store